Weather History for KTOL - January, 2013

Change the Weather History Date:

Saturday, January 26, 2013

  Actual Average Record
Temperature  
Mean Temperature 21 °F 25 °F  
Max Temperature 27 °F 33 °F 68 °F (1950)
Min Temperature 14 °F 18 °F -16 °F (1897)
Degree Days  
Heating Degree Days 44 40  
Month to date heating degree days 998 1031  
Since 1 July heating degree days 3249 3356  
Cooling Degree Days 0 0  
Month to date cooling degree days 0 0  
Year to date cooling degree days 0 0  
Moisture  
Dew Point 15 °F    
Average Humidity 74    
Maximum Humidity 92    
Minimum Humidity 55    
Precipitation  
Precipitation T in 0.06 in 1.24 in (1978)
Month to date precipitation 2.92 1.74  
Year to date precipitation 2.92 1.74  
Snow  
Snow T in 0.30 in - ()
Month to date snowfall 2.8 9.6  
Since 1 July snowfall 9.8 19.1  
Snow Depth 2.00 in    
Sea Level Pressure  
Sea Level Pressure 30.29 in    
Wind  
Wind Speed 6 mph (WNW)    
Max Wind Speed 16 mph    
Max Gust Speed 21 mph    
Visibility 8 miles    
Events Snow    
T = Trace of Precipitation, MM = Missing Value Source: NWS Daily Summary

Daily Weather History Graph

Daily Weather History Graph

Search for Another Location

Airport or City:

Trip Planner

Search our weather history database for the weather conditions in past years. The results will help you decide how hot, cold, wet, or windy it might be!

Date:

Astronomy

Jan. 26, 2013 Rise Set
Actual Time 7:52 AM EST 5:43 PM EST
Civil Twilight 7:22 AM EST 6:13 PM EST
Nautical Twilight 6:49 AM EST 6:47 PM EST
Astronomical Twilight 6:16 AM EST 7:19 PM EST
Moon 5:38 PM EST (1/26) 7:09 AM EST (1/26)
Length of Visible Light 10h 51m
Length of Day
9h 51m
Full, 100% of the Moon is Illuminated
Jan 26
Full
Jan 26
Full
Feb 3
Last Quarter
Feb 10
New
Feb 17
First Quarter

Hourly Weather History & Observations

Time (EST) Temp. Windchill Dew Point Humidity Pressure Visibility Wind Dir Wind Speed Gust Speed Precip Events Conditions
12:52 AM 21.9 °F 13.4 °F 18.0 °F 85% 30.08 in 6.0 mi WSW 6.9 mph - N/A   Overcast
1:52 AM 21.9 °F 11.7 °F 18.0 °F 85% 30.09 in 7.0 mi WSW 9.2 mph - N/A   Overcast
2:52 AM 21.9 °F 11.7 °F 19.0 °F 89% 30.12 in 5.0 mi WSW 9.2 mph - 0.00 in Snow Light Snow
3:52 AM 21.9 °F 13.4 °F 19.0 °F 89% 30.13 in 4.0 mi West 6.9 mph - 0.00 in   Overcast
4:52 AM 21.9 °F 13.4 °F 19.0 °F 89% 30.14 in 5.0 mi West 6.9 mph - N/A   Overcast
5:52 AM 23.0 °F 13.9 °F 18.0 °F 81% 30.16 in 7.0 mi WNW 8.1 mph - N/A   Overcast
6:52 AM 21.9 °F 13.4 °F 17.1 °F 82% 30.20 in 8.0 mi WNW 6.9 mph - N/A   Overcast
7:52 AM 21.9 °F 12.5 °F 16.0 °F 78% 30.23 in 8.0 mi WNW 8.1 mph - 0.00 in   Overcast
8:52 AM 21.9 °F 12.5 °F 16.0 °F 78% 30.25 in 6.0 mi West 8.1 mph - 0.00 in   Haze
9:52 AM 23.0 °F 13.1 °F 16.0 °F 74% 30.28 in 8.0 mi WNW 9.2 mph - N/A   Overcast
10:52 AM 24.1 °F 12.5 °F 16.0 °F 71% 30.31 in 10.0 mi WNW 12.7 mph - N/A   Overcast
11:52 AM 25.0 °F 14.2 °F 10.9 °F 55% 30.34 in 10.0 mi NW 11.5 mph - N/A   Clear
12:52 PM 25.0 °F 14.8 °F 10.9 °F 55% 30.34 in 10.0 mi WNW 10.4 mph 20.7 mph 0.00 in   Mostly Cloudy
1:52 PM 25.0 °F 14.2 °F 10.9 °F 55% 30.34 in 10.0 mi NW 11.5 mph - N/A   Overcast
2:52 PM 25.0 °F 14.8 °F 12.0 °F 58% 30.34 in 10.0 mi NNW 10.4 mph - N/A   Overcast
3:52 PM 26.1 °F 19.4 °F 12.9 °F 58% 30.36 in 10.0 mi NNW 5.8 mph - N/A   Overcast
4:52 PM 26.1 °F 19.4 °F 12.9 °F 58% 30.38 in 10.0 mi NNW 5.8 mph - N/A   Overcast
5:52 PM 25.0 °F - 14.0 °F 63% 30.40 in 10.0 mi Calm Calm - N/A   Overcast
6:52 PM 24.1 °F - 14.0 °F 65% 30.44 in 10.0 mi Calm Calm - N/A   Overcast
7:52 PM 21.9 °F - 12.9 °F 68% 30.43 in 10.0 mi Calm Calm - N/A   Overcast
8:52 PM 17.1 °F - 10.9 °F 77% 30.45 in 10.0 mi Calm Calm - N/A   Clear
9:52 PM 16.0 °F - 10.0 °F 77% 30.45 in 10.0 mi Calm Calm - N/A   Clear
10:52 PM 18.0 °F - 12.9 °F 81% 30.46 in 10.0 mi Calm Calm - N/A   Clear
11:52 PM 19.0 °F - 12.0 °F 74% 30.47 in 10.0 mi Calm Calm - N/A   Partly Cloudy